Location: Beugnon
(47.6222°N, 3.7850°E)
Time: 22:28:07
(UTC+00:00)

Cosmos 1437 - Pass Details

Date: 09 April 2020
Orbit: 373 x 376 km, 81.2° (Epoch: 03 June)

Event Time Altitude Azimuth Distance (km) Brightness Sun altitude
Rises 19:01:33 0° 344° (NNW) 2,261 7.0 -6.5°
Reaches altitude 10° 19:03:35 10° 340° (NNW) 1,401 6.0 -6.8°
Maximum altitude 19:06:32 53° 263° (W) 474 3.4 -7.3°
Drops below altitude 10° 19:09:28 10° 184° (S) 1,383 5.2 -7.7°
Sets 19:11:28 0° 180° (S) 2,227 6.2 -8.1°
